[[{"header":{"parameterUnit":"m.s-1","parameterCategory":1,"la1":30.2991,"la2":30.254,"lo1":-89.0895,"lo2":-89.0444,"dy":0.0017,"dx":0.0017,"nx":28,"ny":28,"refTime":"2025-06-16T21:00:00:Z","depth":0,"parameterNumber":2,"parameterNumberName":"U-component_of_WINDS"},"data":[0,0,0,0,0,0,0,0,0,0,0,0,0,0,0,0,0,0,0,0,0,0,0,0,0,0,0,0,0,0,0,0,0,0,0,0,0,0,0,0,0,0,0,0,0,0,0,0,0,0,0,0,0,0,0,0,0,0,1.4904,1.4904,0,1.492,1.492,1.4921,1.4887,1.4886,1.4884,1.4883,1.4899,1.49,1.4902,0,0,0,0,0,0,0,0,0,0,0,0,0,1.484,1.4842,1.4904,1.4904,1.4904,1.492,1.492,1.4921,1.4887,1.4885,1.4884,1.4883,1.4898,1.49,1.4902,0,0,0,0,0,0,0,0,0,0,0,0,0,1.4863,1.4842,1.4904,1.4889,1.4888,1.492,1.492,1.4921,1.4887,1.4885,1.4884,1.4882,1.4898,1.49,1.4902,1.4948,0,0,1.4909,1.491,0,0,0,0,0,0,0,0,1.4862,1.4866,1.4891,1.489,1.4889,1.49,1.4904,1.493,1.4888,1.4887,1.4883,1.4881,1.49,1.4902,1.4909,1.4949,1.495,1.4909,1.491,1.4911,1.4912,0,0,0,0,0,0,0,1.4861,1.4865,1.491,1.4891,1.489,1.4881,1.4882,1.4908,1.4903,1.4887,1.4885,1.4887,1.4899,1.4907,1.4909,1.495,1.4909,1.4911,1.4912,1.4913,1.5026,1.5028,0,0,0,0,0,0,1.4861,1.4864,1.491,1.4911,1.4871,1.4884,1.4885,1.4898,1.4903,1.4902,1.4889,1.4886,1.4904,1.4906,1.4909,1.4962,1.4911,1.4913,1.4914,1.5025,1.5027,1.5028,0,0,0,0,0,0,1.486,1.4866,1.4909,1.4887,1.4891,1.4886,1.4901,1.4899,1.4906,1.4904,1.4902,1.4898,1.4903,1.4906,1.4938,1.4962,1.4914,1.4916,1.5022,1.5025,1.5028,1.5068,0,0,0,0,0,0,1.4858,1.4865,1.4884,1.4887,1.4893,1.4939,1.4903,1.4901,1.491,1.4907,1.4911,1.4911,1.4902,1.4935,1.4941,1.4964,1.4918,1.502,1.5024,1.5027,1.5065,1.5072,1.5078,0,0,0,0,0,1.4856,1.4895,1.4885,1.489,1.4916,1.494,1.4943,1.4932,1.4913,1.493,1.4928,1.4911,1.4959,1.4939,1.4944,1.4969,1.5019,1.5023,1.5026,1.5062,1.507,1.5078,0,0,0,0,0,0,1.4894,1.4895,1.4884,1.4925,1.4933,1.4934,1.4956,1.4942,1.4956,1.4951,1.4937,1.4939,1.4973,1.4974,1.4952,1.5013,1.4985,1.499,1.501,1.5018,1.5025,1.5023,1.4919,0,0,0,0,0,1.4907,1.4927,1.4927,1.4963,1.4968,1.4961,1.4972,1.4963,1.497,1.4973,1.4973,1.498,1.4997,1.5008,1.5023,1.5065,1.5065,1.5085,1.5091,1.5097,1.5101,1.512,1.5129,1.5041,1.5041,1.5041,0,0,1.4934,1.4937,1.4951,1.4971,1.4976,1.4996,1.4964,1.4988,1.5002,1.4976,1.5006,1.5007,1.5013,1.505,1.5066,1.5052,1.5125,1.5102,1.5106,1.5107,1.5125,1.5134,1.5141,1.5044,1.5043,1.5043,0,0,1.4993,1.4999,1.5028,1.5034,1.5041,1.5037,1.5044,1.5048,1.5047,1.5077,1.5057,1.5074,1.5103,1.5108,1.5115,1.5175,1.5158,1.518,1.5214,1.5233,1.524,1.5246,1.5265,1.5272,1.5185,1.5185,1.5185,0,1.5026,1.5056,1.5045,1.5069,1.5077,1.5055,1.5084,1.509,1.5102,1.5108,1.5093,1.5128,1.5131,1.5167,1.5182,1.5189,1.5195,1.5178,1.524,1.5246,1.5252,1.5269,1.5277,1.5187,1.5187,1.5187,1.5186,0,1.5094,1.5115,1.5138,1.515,1.5161,1.5188,1.5179,1.5192,1.5182,1.5179,1.5208,1.5212,1.5226,1.5234,1.5225,1.5269,1.526,1.5243,1.5214,1.5262,1.5279,1.5286,1.5191,1.519,1.5189,1.5188,0,0,1.5177,1.5182,1.519,1.5194,1.5201,1.5216,1.5241,1.5255,1.5265,1.5275,1.5293,1.5319,1.5302,1.531,1.5301,1.5319,1.5363,1.5299,1.5299,1.5309,1.5408,1.5419,1.5427,1.5353,1.5354,1.5355,1.5407,0,1.5233,1.5276,1.5266,1.5307,1.5325,1.5305,1.5326,1.5331,1.5329,1.5343,1.5341,1.5357,1.5336,1.534,1.5357,1.5354,1.5382,1.535,1.5368,1.5369,1.5365,1.5436,1.5448,1.5497,1.5413,1.5414,1.5415,0,1.5305,1.5316,1.5359,1.5361,1.5368,1.5387,1.5398,1.5413,1.5419,1.5415,1.5423,1.5411,1.5434,1.5407,1.5437,1.5416,1.5423,1.5423,1.5424,1.5424,1.5393,1.5435,1.5512,1.5518,1.5426,1.5425,1.5424,0,1.5357,1.5384,1.5412,1.5417,1.542,1.5434,1.5436,1.544,1.5448,1.5458,1.5463,1.5476,1.5482,1.5492,1.5482,1.5464,1.5514,1.5487,1.551,1.551,1.5519,1.5519,1.5596,1.5528,1.5528,1.5528,1.5528,0,1.542,1.5446,1.5435,1.5453,1.5481,1.5469,1.5498,1.5497,1.5501,1.5517,1.55,1.5516,1.5503,1.5517,1.5511,1.5535,1.5539,1.5536,1.5533,1.5536,1.5536,1.5539,1.5534,1.553,1.553,1.5529,1.5529,0,1.5483,1.5477,1.5506,1.5506,1.5507,1.5528,1.5528,1.5543,1.554,1.556,1.5564,1.5558,1.5573,1.5566,1.5582,1.5577,1.5608,1.5603,1.5606,1.5604,1.5627,1.5624,1.5707,1.5716,1.5644,1.5645,1.5646,0,1.5522,1.5541,1.5544,1.5553,1.5556,1.5572,1.5581,1.557,1.5579,1.5586,1.56,1.5614,1.5625,1.565,1.5647,1.5658,1.5651,1.5679,1.5653,1.5654,1.5648,1.5646,1.5647,1.5684,1.5685,1.5686,1.5686,0,1.5591,1.5587,1.5599,1.5611,1.5621,1.563,1.5637,1.5646,1.5635,1.5646,1.5661,1.5669,1.5685,1.5699,1.5709,1.571,1.5696,1.5695,1.57,1.5702,1.5702,1.57,1.5618,1.5692,1.5692,1.5691,1.5691,1.5691,1.5641,1.5657,1.566,1.5675,1.5679,1.5686,1.5699,1.5697,1.571,1.5722,1.5715,1.5732,1.5736,1.5748,1.5751,1.5764,1.5753,1.5761,1.5763,1.5765,1.5767,1.5703,1.5766,1.5766,1.5766,1.5766,1.5766,0,1.5707,1.5708,1.5722,1.5732,1.5743,1.5729,1.5736,1.5746,1.5761,1.5766,1.5776,1.5793,1.5806,1.5804,1.5815,1.5825,1.5819,1.5828,1.5826,1.5826,1.5777,1.577,1.5833,1.5833,1.5833,1.5833,1.5833,1.5833,1.5742,1.5767,1.5763,1.5789,1.579,1.5807,1.5812,1.5818,1.5821,1.584,1.5851,1.5849,1.5851,1.5862,1.5872,1.5871,1.5875,1.5887,1.5883,1.5837,1.583,1.5824,1.5817,1.5888,1.5888,1.593,1.5931,1.5931]},{"header":{"parameterUnit":"m.s-1","parameterCategory":1,"la1":30.2991,"la2":30.254,"lo1":-89.0895,"lo2":-89.0444,"dy":0.0017,"dx":0.0017,"nx":28,"ny":28,"refTime":"2025-06-16T21:00:00:Z","depth":0,"parameterNumber":3,"parameterNumberName":"V-component_of_WINDS"},"data":[0,0,0,0,0,0,0,0,0,0,0,0,0,0,0,0,0,0,0,0,0,0,0,0,0,0,0,0,0,0,0,0,0,0,0,0,0,0,0,0,0,0,0,0,0,0,0,0,0,0,0,0,0,0,0,0,0,0,5.6399,5.64,0,5.6512,5.6513,5.6514,5.6457,5.6454,5.6451,5.6448,5.6558,5.6564,5.657,0,0,0,0,0,0,0,0,0,0,0,0,0,5.6125,5.613,5.6398,5.64,5.6401,5.6512,5.6513,5.6515,5.6458,5.6454,5.645,5.6447,5.6557,5.6563,5.657,0,0,0,0,0,0,0,0,0,0,0,0,0,5.6241,5.6132,5.6398,5.6386,5.6386,5.6511,5.6513,5.6515,5.6458,5.6454,5.6449,5.6445,5.6554,5.6563,5.6571,5.6713,0,0,5.6597,5.6601,0,0,0,0,0,0,0,0,5.6235,5.6251,5.6387,5.6387,5.6388,5.6466,5.6457,5.6581,5.646,5.6431,5.6448,5.6443,5.6531,5.6541,5.6572,5.6718,5.6722,5.6598,5.6603,5.6607,5.6609,0,0,0,0,0,0,0,5.6227,5.6246,5.6443,5.6389,5.6389,5.6373,5.6384,5.648,5.6504,5.6433,5.6429,5.6444,5.653,5.6564,5.6574,5.6724,5.6598,5.6605,5.661,5.6614,5.6988,5.6992,0,0,0,0,0,0,5.622,5.624,5.644,5.6447,5.6299,5.6381,5.6394,5.6445,5.6503,5.6508,5.6447,5.6441,5.6551,5.6564,5.6578,5.6745,5.6607,5.6615,5.6619,5.6983,5.6989,5.6994,0,0,0,0,0,0,5.6215,5.6239,5.6435,5.6342,5.6366,5.6391,5.6448,5.645,5.6483,5.6514,5.6517,5.6478,5.6548,5.6566,5.6679,5.6748,5.6618,5.6626,5.6977,5.6985,5.6991,5.7082,0,0,0,0,0,0,5.6207,5.6237,5.6293,5.6344,5.6371,5.6537,5.6453,5.6455,5.6499,5.6491,5.6543,5.6548,5.6546,5.6667,5.6688,5.6757,5.6633,5.6971,5.6981,5.6989,5.7073,5.7091,5.7107,0,0,0,0,0,5.6197,5.6313,5.6296,5.6321,5.6442,5.6541,5.6557,5.6554,5.6505,5.656,5.6579,5.6546,5.6737,5.6679,5.6702,5.6775,5.6967,5.6978,5.6988,5.7065,5.7088,5.7107,0,0,0,0,0,0,5.6268,5.632,5.6301,5.6438,5.6486,5.6532,5.6601,5.6579,5.664,5.663,5.6623,5.6635,5.6752,5.6775,5.6709,5.6913,5.6844,5.686,5.6894,5.6916,5.6933,5.6924,5.664,0,0,0,0,0,5.63,5.6379,5.6418,5.6535,5.656,5.6577,5.662,5.6614,5.6662,5.6682,5.6709,5.6756,5.6826,5.6872,5.6939,5.7076,5.7085,5.7138,5.7155,5.7169,5.7182,5.7253,5.7276,5.703,5.703,5.7029,0,0,5.6366,5.6404,5.6454,5.655,5.6586,5.6665,5.6594,5.6681,5.6738,5.6694,5.6803,5.6825,5.6876,5.7001,5.7058,5.7024,5.7252,5.7182,5.7193,5.7199,5.7267,5.729,5.7311,5.7037,5.7036,5.7035,0,0,5.6526,5.6564,5.6664,5.6702,5.6758,5.6768,5.6792,5.6841,5.6854,5.6964,5.6932,5.6998,5.7121,5.7157,5.7192,5.7364,5.7335,5.7386,5.7475,5.7544,5.7564,5.7581,5.7639,5.7661,5.7399,5.7399,5.74,0,5.66,5.672,5.6717,5.6807,5.6848,5.6814,5.6913,5.6949,5.7024,5.7052,5.7013,5.7164,5.7196,5.7328,5.737,5.74,5.7425,5.7379,5.7561,5.7579,5.7594,5.765,5.7673,5.7405,5.7404,5.7404,5.7403,0,5.6807,5.689,5.6963,5.7038,5.7088,5.7182,5.7191,5.7241,5.723,5.7244,5.7353,5.7391,5.7463,5.7494,5.7484,5.7624,5.7601,5.7562,5.7492,5.7624,5.7676,5.7697,5.7413,5.7411,5.7409,5.7408,0,0,5.7015,5.7086,5.7113,5.7145,5.7204,5.7267,5.7357,5.743,5.7472,5.7524,5.7598,5.7701,5.7665,5.7705,5.7698,5.7759,5.789,5.7713,5.7713,5.7742,5.8043,5.807,5.8095,5.7871,5.7875,5.7879,5.8038,0,5.7177,5.7339,5.7338,5.7485,5.756,5.7527,5.7606,5.7649,5.7663,5.7727,5.7741,5.7814,5.7762,5.7785,5.7844,5.7861,5.7949,5.785,5.7937,5.794,5.7924,5.8123,5.8153,5.8302,5.8058,5.8062,5.8064,0,5.7389,5.7449,5.7605,5.765,5.7682,5.7753,5.7817,5.788,5.7926,5.7932,5.7976,5.7959,5.8048,5.7976,5.8097,5.8029,5.8064,5.8077,5.8083,5.809,5.8009,5.8133,5.8349,5.8371,5.8097,5.8094,5.8092,0,5.7522,5.7642,5.775,5.7779,5.7836,5.7885,5.7911,5.7954,5.7996,5.8052,5.8079,5.8144,5.8179,5.8228,5.8228,5.8176,5.8349,5.8278,5.8354,5.8354,5.8391,5.8388,5.8614,5.8417,5.8416,5.8416,5.8415,0,5.7703,5.7798,5.781,5.7877,5.7982,5.7979,5.8082,5.8102,5.814,5.8208,5.8183,5.8246,5.8243,5.8306,5.8307,5.8405,5.8421,5.8426,5.8425,5.8428,5.8427,5.8449,5.8438,5.8422,5.842,5.8419,5.8418,0,5.7869,5.7881,5.7996,5.8041,5.8054,5.8129,5.8166,5.8227,5.8239,5.8324,5.8344,5.8361,5.8434,5.8439,5.8523,5.8523,5.8642,5.863,5.8627,5.8624,5.8698,5.8691,5.8945,5.8977,5.8761,5.8763,5.8765,0,5.7983,5.8056,5.8108,5.8152,5.8181,5.8253,5.8296,5.8295,5.8341,5.8398,5.8452,5.8523,5.8579,5.8697,5.8715,5.8778,5.8767,5.8851,5.8776,5.8775,5.8765,5.876,5.8766,5.8865,5.8868,5.887,5.8871,0,5.8183,5.8185,5.825,5.8316,5.8369,5.8421,5.8469,5.8506,5.851,5.8562,5.8637,5.8681,5.8767,5.8836,5.8898,5.8921,5.8896,5.8895,5.8916,5.8918,5.8913,5.8914,5.8664,5.8889,5.8887,5.8886,5.8885,5.8884,5.8325,5.8387,5.8433,5.8505,5.8542,5.8587,5.8647,5.8666,5.8729,5.88,5.8794,5.8877,5.8918,5.8999,5.9027,5.9089,5.906,5.909,5.9098,5.9105,5.9111,5.8904,5.91,5.91,5.9099,5.9099,5.9099,0,5.8521,5.8549,5.8616,5.8684,5.874,5.8714,5.8766,5.8813,5.8887,5.8929,5.8985,5.907,5.9136,5.916,5.9224,5.9269,5.9259,5.9286,5.9282,5.9287,5.9135,5.911,5.9293,5.9293,5.9293,5.9293,5.9293,5.9293,5.863,5.8733,5.8741,5.8861,5.8887,5.8969,5.9,5.904,5.9074,5.917,5.9226,5.9242,5.9275,5.9341,5.94,5.9405,5.9429,5.946,5.946,5.9317,5.9298,5.9279,5.9255,5.9466,5.9466,5.9606,5.9608,5.9609]}]]